Wind_Speed
24 25 25 26 27 27 25 24 25 26 28 29 29 28 28 28 28 28 27 25 23 21 20 19 19 18 18 17 16 16 15 14 13 13 12 11 10 10 9 9 8 8 7 6 5 5 5 5 5
25 25 26 27 28 28 25 24 25 26 27 29 30 30 30 29 30 30 28 27 25 24 23 22 21 20 19 19 18 18 17 17 16 15 14 13 12 11 10 10 10 9 8 8 7 6 6 6 5
25 26 26 27 27 27 25 24 25 26 27 29 30 31 30 30 31 31 30 29 28 26 25 24 23 22 21 21 20 20 19 18 17 17 16 15 14 13 12 12 11 10 10 9 8 8 7 7 7
25 26 26 27 27 26 25 25 26 27 28 28 29 30 30 31 31 31 31 30 30 29 28 26 25 24 23 22 22 21 21 20 19 18 18 17 16 16 15 14 13 12 11 10 10 9 9 9 8
25 26 27 27 26 26 25 25 27 28 29 29 29 30 31 31 32 32 32 32 31 30 29 28 27 26 25 24 23 23 22 22 21 20 19 19 18 17 17 16 15 14 13 12 11 11 10 10 9
24 25 26 26 26 26 26 26 27 28 29 29 30 31 32 31 31 31 32 32 32 31 31 30 28 27 26 26 25 24 24 24 23 22 21 21 20 19 18 18 17 16 15 14 13 12 12 11 11
24 25 25 26 25 25 25 26 26 28 28 28 29 30 30 32 31 31 31 31 32 32 32 31 30 29 28 27 27 26 26 25 25 25 24 23 22 21 20 20 19 18 17 16 15 14 13 13 12
23 24 24 25 25 25 25 26 26 27 27 28 29 29 29 31 30 30 30 30 30 31 32 32 31 30 29 29 28 28 27 27 26 26 25 25 24 23 22 21 21 20 19 18 17 16 15 14 14
23 23 24 24 25 24 24 25 26 26 26 27 27 28 27 30 30 30 31 30 31 31 31 31 31 30 30 29 29 28 28 28 27 27 27 26 26 25 24 23 22 21 21 20 19 18 17 16 16
22 23 23 23 24 24 24 24 25 26 25 25 26 27 26 28 29 30 31 32 32 32 32 31 31 31 31 30 30 29 29 29 28 28 28 28 27 27 26 25 25 24 23 22 21 20 20 19 18
21 22 22 23 23 24 24 23 24 25 25 25 25 26 27 27 27 29 31 32 33 33 32 32 32 32 31 31 31 31 30 30 30 29 29 29 29 28 28 26 27 26 25 23 23 22 21 20 19
20 20 21 22 23 23 22 23 23 24 23 24 24 25 27 26 26 28 30 32 33 33 33 33 33 33 32 32 32 32 32 31 31 30 30 31 31 30 29 29 28 28 27 26 25 24 23 22 21
19 19 20 21 22 22 22 22 23 23 23 23 24 25 26 27 27 28 29 31 33 33 33 34 34 33 32 33 34 33 33 33 32 33 32 32 32 32 31 30 29 29 29 28 27 26 25 24 23
19 19 19 20 20 21 22 22 23 23 23 24 25 25 25 26 26 27 28 29 31 33 34 35 34 34 32 33 34 34 35 34 34 33 34 33 33 32 32 31 31 30 30 29 29 28 27 26 25
19 18 18 19 20 20 22 22 23 24 24 25 25 25 25 26 27 26 27 28 31 32 34 35 35 35 34 34 33 33 36 36 35 35 35 35 35 34 32 33 33 31 31 31 30 30 29 28 27
19 19 18 18 19 19 20 20 21 23 24 25 25 25 25 26 26 26 26 27 30 32 33 34 35 35 36 35 34 35 35 37 37 36 36 36 36 35 34 34 34 33 32 32 32 31 30 29 28
19 19 19 18 18 19 19 18 19 21 22 23 24 25 25 26 27 26 26 26 29 30 32 32 34 35 37 36 36 36 36 37 38 38 37 37 37 37 36 34 34 34 33 33 33 32 32 31 30
20 20 19 19 19 19 19 18 19 20 21 22 23 24 24 26 27 27 27 27 29 30 31 31 33 35 37 36 34 35 37 37 38 38 38 38 38 38 38 36 35 34 34 34 34 34 34 33 31
20 20 19 19 19 20 20 19 19 19 21 21 22 23 24 25 26 26 27 28 28 29 31 31 31 33 34 35 35 34 36 37 37 38 39 39 40 40 40 40 38 36 36 35 35 36 35 35 34
20 20 19 19 19 20 20 19 20 20 19 20 21 22 22 23 25 25 27 28 28 28 29 29 29 30 33 35 36 35 34 36 37 38 38 39 40 41 40 40 39 38 36 35 36 36 36 36 36
20 20 20 20 20 20 20 19 20 20 19 19 20 21 22 23 24 25 26 27 27 27 27 28 28 29 31 33 34 34 35 35 36 36 37 38 39 40 41 41 39 38 37 37 37 37 37 38 38
20 20 20 20 20 20 20 21 19 20 20 20 20 20 21 22 22 23 24 25 26 27 28 28 27 27 29 30 31 32 32 33 35 36 37 37 38 38 40 40 40 39 38 39 39 39 39 39 40
21 21 21 21 20 20 20 21 19 20 20 20 20 20 21 21 21 22 23 24 25 26 26 27 27 27 28 29 30 30 30 31 33 34 36 36 37 38 40 40 40 40 40 39 39 39 39 40 41
21 20 21 21 21 20 20 21 20 20 20 20 20 20 21 22 21 21 22 23 25 26 26 26 26 26 27 27 28 29 30 30 31 32 34 35 35 36 37 39 40 40 40 40 39 39 40 41 43
21 21 21 22 21 20 21 22 21 21 21 20 20 21 21 22 22 21 22 23 24 25 25 25 26 27 27 27 28 29 30 30 32 33 34 35 36 36 37 38 39 40 40 40 40 41 41 42 43
21 22 22 23 23 22 22 23 22 21 22 22 21 21 21 21 22 22 22 23 24 26 27 27 27 27 28 28 29 30 30 31 31 32 32 34 35 36 37 37 38 39 40 40 41 42 41 42 44
22 22 22 23 23 23 23 23 22 22 22 22 22 21 21 22 22 23 23 23 24 25 27 27 27 27 28 29 30 30 31 32 32 32 32 33 35 36 37 37 39 40 41 42 42 42 43 44 44
24 23 23 24 25 26 24 23 23 23 23 23 23 22 21 22 23 23 24 24 25 26 27 28 29 28 29 29 29 30 31 33 33 34 34 34 35 36 37 38 39 40 40 41 41 42 44 43 44
25 25 25 25 26 27 26 25 24 23 23 22 22 22 22 23 23 24 25 25 26 26 27 29 30 30 30 29 29 30 31 32 33 34 35 36 36 37 38 39 40 40 41 41 42 42 42 44 45
27 27 26 27 27 27 28 26 25 24 23 23 23 23 23 24 24 24 25 26 27 28 28 28 30 30 31 31 32 31 31 31 32 33 34 34 36 37 39 39 39 40 42 43 44 44 44 45 46
Wind_Direction
271 270 269 267 266 265 266 265 262 259 256 253 252 251 250 248 247 247 247 246 244 243 244 244 245 245 244 244 244 243 242 240 238 237 237 236 236 234 232 232 231 231 228 229 232 233 235 238 245
271 270 268 266 265 266 266 265 262 260 257 255 252 250 249 248 247 247 247 246 244 243 243 244 245 246 246 244 244 243 241 241 240 237 236 237 237 236 233 232 232 231 232 235 238 240 242 244 249
270 269 267 266 265 266 267 265 264 260 258 256 254 250 249 248 247 247 246 245 244 243 242 243 245 245 246 245 245 244 243 241 241 239 238 237 238 237 235 234 234 235 235 237 239 243 247 247 249
270 268 266 265 265 265 265 265 263 262 259 257 256 253 250 248 247 246 245 244 243 242 241 242 243 244 244 245 245 245 243 242 240 239 239 238 239 238 238 237 237 238 239 239 239 242 246 249 251
270 267 266 265 264 263 263 263 262 262 261 259 256 253 250 247 246 246 245 244 243 242 241 241 242 242 242 243 244 245 244 242 241 239 239 239 239 239 238 239 239 241 241 242 242 244 247 249 251
271 268 267 266 264 263 262 262 263 262 261 259 257 254 252 249 247 246 245 243 242 241 241 241 241 241 241 242 243 244 244 243 242 240 239 239 240 239 239 240 241 242 243 243 245 247 249 249 253
273 270 268 267 265 263 261 262 262 263 261 259 258 256 255 252 247 246 245 244 243 241 241 241 242 241 241 242 243 243 244 244 243 241 240 240 242 241 241 241 242 243 245 248 248 248 249 251 254
276 271 268 266 265 265 264 263 263 263 261 260 259 259 257 253 248 246 245 243 242 241 240 240 241 241 242 242 243 244 244 244 243 243 241 241 242 243 242 241 243 244 246 249 250 250 251 252 256
277 273 269 268 267 266 266 264 263 262 262 261 259 259 259 254 250 246 244 243 242 241 240 240 241 241 242 242 243 244 243 243 244 243 242 242 243 243 243 242 243 245 247 249 251 253 254 254 258
278 274 272 270 269 268 266 265 263 262 261 261 261 260 260 256 251 246 243 243 242 241 240 241 241 242 243 242 243 244 244 244 244 243 242 242 242 243 244 244 243 245 248 249 252 255 256 257 258
281 276 271 268 267 266 266 264 263 263 261 261 263 260 259 256 252 248 244 243 241 240 240 241 242 242 242 242 243 244 244 244 244 244 242 242 242 243 244 245 244 245 247 250 252 255 258 259 259
287 280 272 267 266 266 267 264 262 263 262 262 264 262 258 256 253 250 247 244 242 241 240 241 242 243 243 244 244 244 244 244 244 245 244 242 242 242 244 245 246 246 247 249 253 254 257 260 262
291 288 278 272 268 267 266 264 262 263 263 263 263 262 260 258 254 252 248 245 243 241 239 240 241 243 244 245 244 244 245 244 244 244 245 244 242 243 243 245 246 246 246 248 251 254 257 260 263
292 293 285 279 273 269 267 264 263 261 263 264 264 262 261 258 257 254 250 246 244 242 240 240 241 243 245 246 244 244 244 244 244 244 244 244 244 243 244 246 247 247 247 248 250 253 257 261 263
295 295 289 284 279 274 270 265 264 263 263 264 264 264 261 258 257 254 250 245 243 242 241 240 240 241 243 245 244 246 243 243 244 243 243 243 243 244 244 246 247 247 247 247 249 251 255 259 262
297 297 293 288 285 282 277 270 266 266 265 265 265 264 261 258 256 254 251 248 244 243 244 243 242 242 243 244 245 245 243 242 243 244 243 243 242 243 245 246 246 248 247 247 248 251 254 257 260
298 298 297 292 290 287 284 278 271 269 268 266 265 264 260 258 256 255 253 249 247 246 244 244 244 243 244 246 247 246 244 244 243 244 244 243 242 242 244 245 246 247 248 248 248 250 253 256 259
302 300 300 296 293 290 287 283 280 276 273 271 269 266 262 260 258 255 253 253 251 247 245 245 245 244 244 247 248 247 245 243 243 244 245 244 243 243 245 246 247 248 250 250 249 251 253 255 259
303 301 303 300 295 291 288 284 283 283 277 275 273 271 267 263 258 255 253 253 253 249 248 245 243 244 244 246 247 247 245 243 243 245 246 245 244 245 246 249 249 248 250 251 251 252 253 255 258
302 302 302 302 299 294 290 286 284 284 282 276 275 273 271 266 261 257 254 253 254 253 249 246 245 246 245 246 246 247 247 246 245 246 248 247 246 247 248 250 251 250 251 252 251 253 254 256 259
300 300 303 302 300 297 292 288 287 285 282 279 276 274 273 271 266 261 257 254 253 252 248 249 250 248 245 245 246 247 247 248 248 248 249 249 248 248 248 250 252 253 252 252 253 254 254 255 259
301 300 301 302 300 299 296 292 289 287 284 280 278 276 275 272 268 262 259 255 252 252 250 250 252 250 248 247 248 248 248 249 249 249 249 249 249 249 250 252 253 252 252 254 255 255 255 257 259
300 300 300 300 299 299 299 295 293 290 287 282 279 278 275 272 269 264 259 256 254 255 255 253 253 253 252 250 249 248 250 251 249 249 249 249 250 251 252 253 254 255 256 257 258 257 256 258 260
301 300 300 300 299 298 300 298 296 294 292 287 282 279 276 272 269 265 260 255 254 255 258 258 256 256 254 252 249 248 250 252 252 251 251 250 251 253 254 254 255 257 258 258 260 260 260 261 261
301 301 301 302 302 300 301 301 299 300 296 291 285 282 277 272 269 267 262 256 254 255 257 259 257 257 256 254 253 251 250 252 253 253 252 252 252 253 254 255 256 257 259 260 261 262 262 263 264
301 300 302 303 302 301 302 302 300 303 299 292 285 282 278 274 270 269 266 262 258 257 258 259 259 258 257 257 256 254 253 253 255 256 257 254 254 254 255 256 256 258 259 259 261 263 263 264 266
299 297 297 299 300 301 303 303 300 300 300 294 286 281 278 274 271 269 270 267 263 260 260 261 261 261 260 260 259 257 255 255 257 258 259 258 257 256 257 258 259 260 260 262 262 261 262 264 267
294 295 295 296 298 299 300 302 303 302 300 298 290 283 279 275 273 269 269 269 267 265 263 263 261 261 260 261 261 260 259 259 258 260 261 261 261 261 260 260 262 261 262 264 264 263 264 266 268
290 290 292 293 293 294 297 299 302 304 302 300 294 286 279 275 273 271 269 270 270 268 265 263 262 262 260 260 262 263 262 260 260 261 262 263 263 264 264 263 263 264 264 264 266 267 268 269 269
287 287 288 290 291 291 293 295 298 299 299 297 293 288 282 277 273 271 270 270 270 269 267 265 263 264 263 263 263 265 265 263 263 263 264 265 266 267 267 265 265 265 267 268 268 268 269 270 271
Height
5819 5819 5819 5820 5820 5820 5821 5822 5822 5823 5824 5825 5826 5827 5829 5830 5832 5834 5835 5836 5837 5839 5840 5842 5843 5844 5845 5846 5847 5847 5848 5849 5850 5851 5852 5853 5853 5854 5854 5855 5855 5856 5856 5857 5857 5858 5858 5858 5859
5813 5814 5814 5814 5813 5813 5816 5817 5817 5817 5818 5818 5820 5822 5823 5824 5825 5826 5829 5831 5833 5835 5836 5838 5839 5840 5841 5842 5843 5844 5845 5846 5848 5848 5849 5850 5851 5852 5852 5853 5854 5854 5855 5855 5856 5856 5857 5857 5857
5807 5807 5808 5807 5807 5809 5811 5811 5811 5811 5812 5812 5814 5815 5817 5818 5819 5821 5823 5825 5827 5830 5831 5833 5834 5836 5837 5838 5840 5841 5842 5843 5844 5845 5846 5847 5849 5849 5850 5851 5852 5852 5853 5854 5854 5855 5855 5856 5856
5801 5801 5801 5801 5802 5804 5805 5806 5805 5805 5806 5806 5808 5809 5810 5812 5813 5815 5818 5819 5822 5824 5826 5828 5829 5831 5832 5834 5835 5837 5838 5839 5840 5842 5843 5844 5845 5847 5848 5849 5850 5850 5851 5852 5852 5853 5854 5854 5854
5794 5794 5794 5794 5796 5798 5799 5799 5799 5799 5799 5800 5801 5802 5803 5804 5807 5809 5811 5813 5815 5818 5820 5822 5824 5826 5828 5829 5831 5832 5834 5835 5836 5838 5839 5841 5842 5843 5845 5846 5847 5848 5849 5849 5850 5851 5851 5852 5852
5788 5787 5788 5788 5790 5791 5792 5792 5792 5792 5792 5793 5794 5795 5796 5798 5800 5803 5804 5806 5809 5812 5814 5816 5818 5820 5822 5824 5826 5827 5829 5830 5832 5833 5835 5837 5838 5840 5841 5842 5844 5845 5846 5847 5848 5848 5849 5849 5850
5782 5781 5781 5783 5784 5785 5785 5785 5786 5786 5786 5787 5787 5788 5790 5791 5794 5796 5798 5800 5802 5805 5807 5810 5812 5814 5817 5819 5820 5822 5824 5825 5827 5829 5831 5832 5834 5836 5837 5839 5840 5842 5843 5844 5845 5845 5846 5847 5847
5774 5775 5775 5776 5777 5778 5779 5778 5779 5778 5779 5779 5780 5782 5783 5784 5787 5789 5791 5793 5796 5798 5801 5803 5806 5808 5810 5813 5815 5817 5819 5820 5822 5824 5826 5828 5830 5831 5833 5835 5837 5838 5839 5840 5841 5842 5843 5844 5845
5768 5769 5769 5770 5771 5772 5772 5771 5772 5771 5772 5773 5774 5775 5776 5776 5779 5782 5785 5787 5789 5791 5794 5797 5799 5802 5804 5806 5809 5811 5813 5815 5817 5819 5821 5823 5825 5827 5829 5831 5833 5834 5836 5837 5838 5839 5840 5841 5841
5762 5762 5763 5765 5764 5764 5764 5764 5765 5765 5766 5766 5767 5767 5768 5769 5772 5774 5777 5780 5783 5785 5788 5790 5793 5795 5798 5800 5802 5805 5807 5809 5811 5814 5816 5818 5820 5822 5824 5826 5828 5830 5831 5833 5834 5835 5836 5837 5838
5756 5756 5757 5757 5756 5756 5757 5758 5758 5758 5759 5760 5760 5760 5761 5763 5765 5767 5770 5772 5775 5778 5781 5784 5786 5789 5791 5793 5796 5798 5801 5803 5805 5808 5810 5812 5814 5817 5819 5821 5823 5825 5826 5828 5830 5831 5832 5833 5834
5751 5751 5750 5750 5750 5751 5751 5752 5752 5752 5753 5753 5753 5753 5754 5756 5758 5760 5762 5765 5768 5771 5774 5776 5779 5782 5784 5786 5789 5791 5794 5796 5799 5801 5803 5806 5808 5811 5813 5815 5817 5819 5821 5823 5825 5826 5828 5829 5829
5747 5746 5745 5744 5745 5745 5745 5745 5746 5746 5747 5746 5746 5747 5748 5749 5750 5752 5755 5758 5760 5763 5766 5769 5772 5775 5777 5779 5781 5784 5787 5789 5792 5794 5796 5799 5801 5804 5807 5809 5811 5813 5815 5818 5819 5821 5822 5824 5824
5742 5741 5740 5739 5739 5739 5739 5739 5739 5740 5740 5740 5740 5741 5742 5742 5743 5745 5747 5750 5752 5755 5758 5761 5764 5767 5769 5771 5774 5776 5779 5782 5784 5786 5789 5791 5794 5797 5800 5803 5805 5806 5809 5811 5813 5815 5817 5818 5819
5738 5737 5736 5734 5733 5733 5733 5734 5734 5734 5734 5734 5734 5735 5736 5736 5737 5738 5740 5742 5744 5747 5750 5753 5756 5759 5761 5763 5765 5768 5770 5773 5776 5779 5781 5784 5786 5789 5792 5795 5798 5799 5802 5804 5807 5809 5811 5812 5813
5734 5732 5731 5730 5728 5727 5728 5728 5728 5727 5727 5727 5728 5728 5729 5730 5730 5732 5733 5735 5737 5739 5742 5744 5747 5750 5753 5755 5757 5759 5762 5765 5768 5770 5773 5775 5778 5782 5785 5788 5791 5793 5795 5797 5800 5802 5804 5805 5807
5730 5728 5727 5726 5724 5722 5722 5722 5722 5721 5721 5721 5721 5721 5722 5723 5724 5725 5726 5728 5730 5732 5734 5736 5739 5741 5744 5747 5749 5751 5754 5756 5759 5762 5765 5767 5771 5774 5777 5780 5783 5786 5788 5790 5792 5795 5797 5798 5800
5726 5724 5722 5721 5720 5718 5717 5717 5716 5715 5715 5715 5715 5715 5715 5716 5718 5719 5720 5721 5723 5724 5726 5728 5731 5733 5736 5738 5740 5743 5745 5748 5751 5754 5757 5760 5763 5766 5770 5772 5775 5778 5781 5783 5785 5787 5789 5791 5792
5721 5720 5718 5717 5715 5714 5713 5712 5711 5710 5710 5709 5709 5709 5709 5710 5711 5712 5713 5714 5715 5717 5719 5720 5723 5725 5728 5730 5733 5735 5737 5740 5743 5746 5749 5752 5755 5758 5762 5765 5768 5771 5773 5775 5777 5779 5781 5783 5785
5718 5716 5715 5714 5711 5710 5708 5708 5706 5706 5705 5705 5704 5704 5703 5704 5704 5705 5706 5708 5709 5710 5712 5714 5716 5718 5720 5723 5725 5727 5730 5732 5735 5738 5741 5744 5747 5750 5754 5757 5760 5762 5765 5767 5769 5771 5773 5775 5777
5714 5713 5711 5709 5708 5706 5705 5704 5702 5701 5700 5700 5699 5698 5698 5698 5698 5699 5700 5702 5703 5705 5706 5708 5710 5711 5714 5716 5718 5721 5723 5725 5728 5731 5733 5736 5739 5742 5746 5749 5752 5754 5757 5759 5761 5762 5765 5767 5768
5710 5709 5707 5705 5704 5702 5701 5699 5699 5697 5696 5695 5695 5694 5693 5693 5693 5694 5694 5696 5698 5699 5700 5702 5703 5705 5706 5708 5711 5714 5716 5718 5721 5723 5726 5728 5731 5734 5737 5740 5743 5746 5748 5750 5752 5754 5756 5758 5759
5706 5705 5704 5702 5699 5698 5697 5695 5695 5692 5691 5691 5690 5690 5689 5688 5688 5689 5690 5691 5692 5694 5695 5696 5698 5699 5700 5702 5704 5707 5709 5711 5713 5716 5718 5721 5724 5726 5729 5732 5735 5737 5739 5741 5743 5745 5747 5748 5750
5702 5701 5700 5698 5696 5695 5693 5691 5690 5688 5687 5686 5685 5685 5684 5683 5683 5684 5684 5685 5687 5688 5690 5691 5692 5693 5694 5696 5698 5700 5702 5704 5706 5708 5711 5713 5715 5718 5721 5723 5726 5728 5730 5732 5734 5736 5737 5739 5740
5699 5698 5696 5693 5691 5690 5689 5686 5686 5685 5683 5681 5680 5679 5678 5678 5678 5679 5679 5680 5681 5682 5684 5685 5686 5688 5688 5690 5692 5693 5695 5697 5699 5701 5703 5705 5707 5710 5712 5714 5717 5719 5721 5723 5725 5726 5727 5728 5730
5694 5693 5692 5690 5687 5686 5685 5682 5683 5681 5678 5676 5675 5674 5673 5673 5674 5674 5674 5675 5676 5677 5678 5679 5680 5682 5683 5684 5685 5686 5688 5690 5692 5694 5696 5697 5699 5701 5704 5706 5708 5710 5712 5713 5715 5716 5717 5718 5719
5690 5689 5687 5685 5683 5681 5680 5679 5678 5676 5674 5672 5670 5669 5669 5669 5669 5669 5669 5669 5670 5671 5672 5673 5674 5675 5676 5678 5679 5680 5681 5683 5685 5686 5688 5690 5692 5693 5695 5697 5699 5700 5702 5704 5705 5706 5706 5707 5707
5686 5684 5682 5680 5677 5676 5676 5675 5674 5671 5669 5667 5666 5664 5664 5663 5663 5663 5663 5664 5664 5665 5666 5667 5668 5669 5670 5671 5672 5673 5675 5676 5677 5679 5680 5682 5683 5685 5686 5688 5689 5691 5692 5693 5694 5695 5695 5696 5696
5680 5679 5677 5675 5673 5671 5669 5672 5669 5666 5664 5662 5661 5659 5658 5658 5658 5658 5658 5658 5659 5659 5660 5661 5661 5662 5663 5664 5665 5666 5667 5668 5670 5671 5672 5673 5675 5676 5677 5678 5680 5681 5682 5683 5683 5684 5684 5685 5685
5673 5672 5671 5670 5668 5666 5664 5667 5663 5661 5659 5657 5655 5654 5653 5653 5652 5652 5652 5652 5653 5653 5653 5654 5654 5655 5656 5657 5658 5659 5660 5661 5662 5663 5664 5665 5666 5667 5668 5669 5670 5671 5671 5672 5672 5672 5673 5673 5673